Home   Weather   Cuenca   Past weeks
Flag for Ecuador

Past Weather in Cuenca, Ecuador — Yesterday and Last 2 Weeks

Now
61 °F

Broken clouds.


Feels Like: 61 °F
Forecast: 64 / 51 °F
Wind: 5 mph from East

Location: Cuenca / Mariscal Lamar

Current Time: Mar 26, 2019 at 9:35:05 am

Latest Report: Mar 26, 2019 at 9:00 am


Visibility: N/A

Pressure: 30.33 "Hg (22.43 "Hg at 2554m altitude)

Humidity: 88%

Dew Point: 57 °F

Location of CuencaLocation

Past Weather in Cuenca — Graph

°F

Cuenca Temperature Yesterday

Maximum temperature yesterday: 70 °F (at 2:00 pm)
Minimum temperature yesterday: 57 °F (at 6:00 am)
Average temperature yesterday: 62 °F

High & Low Weather Summary for the Past Weeks

 TemperatureHumidityPressure
High77 °F (Mar 13, 1:00 pm)100% (Mar 12, 5:00 am)30.39 "Hg (Mar 12, 5:00 am)
Low52 °F (Mar 12, 7:00 am)39% (Mar 16, 3:00 pm)30.12 "Hg (Mar 13, 4:00 pm)
Average63 °F74%30.27 "Hg
* Reported Mar 11 8:00 am — Mar 26 8:00 am, Cuenca. Weather by CustomWeather, © 2019

Note: Actual official high and low records may vary slightly from our data, if they occured in-between our weather recording intervals... More about our weather records

Advertising

Cuenca Weather History for the Previous 24 Hours

Scroll right to see more
 ConditionsComfort  
Time TempWeatherWind HumidityBarometerVisibility
8:00 am
Tue, Mar 26
55 °FFog.2 mph100%30.30 "Hg3 mi
7:00 am54 °FFog.2 mph100%30.27 "Hg1 mi
6:40 am54 °FFog.2 mph100%30.27 "Hg1 mi
6:30 am54 °FFog.3 mph100%30.27 "Hg1 mi
6:15 am54 °FFog.3 mph100%30.24 "Hg2 mi
6:00 am54 °FPartly cloudy.2 mph100%30.24 "Hg4 mi
9:00 pm
Mon, Mar 25
57 °FPassing clouds.3 mph94%30.27 "HgN/A
8:00 pm59 °FPassing clouds.2 mph88%30.24 "HgN/A
7:00 pm59 °FPassing clouds.2 mph88%30.21 "HgN/A
6:00 pm61 °FPartly sunny.3 mph83%30.21 "HgN/A
5:00 pm63 °FPartly sunny.6 mph77%30.18 "HgN/A
4:00 pm63 °FPartly sunny.2 mph83%30.21 "HgN/A
3:00 pm63 °FLight rain. Partly sunny.9 mph77%30.21 "HgN/A
2:00 pm70 °FPartly sunny.5 mph60%30.24 "HgN/A
1:00 pm66 °FOvercast.8 mph64%30.27 "HgN/A
12:00 pm68 °FOvercast.6 mph60%30.30 "HgN/A
11:00 am66 °FOvercast.5 mph68%30.33 "HgN/A
10:00 am64 °FOvercast.3 mph78%30.36 "HgN/A
9:00 am59 °FOvercast.2 mph88%30.36 "HgN/A
Weather by CustomWeather, © 2019

See weather overview